This demonstration page uses our WeatherBlox Daily Observations layout. Learn more.

Left ArrowRight Arrow

Hourly Observations for July 27, 2015

Temp ( °F °C ) Dew Point ( °F °C ) Humidity (%) Winds ( mph kmh ) Pressure ( in mb ) Visibility ( mi km ) Precip ( " mm )
12:53 am 00:53 Mostly Cloudy with Mist and Fog 73 22.8 72 22.2 96 96 N N/A 29.97 1015 3 5 N/A
1:53 am 01:53 Clear with Mist and Fog 72 22.2 71 21.7 97 97 N N/A 29.95 1014 5 8 N/A
2:53 am 02:53 Mostly Cloudy with Mist and Fog 72 22.2 71 21.7 97 97 N N/A 29.96 1014 4 6 N/A
3:53 am 03:53 Mostly Cloudy with Mist and Fog 74 23.3 71 21.7 91 91 NE 3 6 29.94 1014 6 10 N/A
4:53 am 04:53 Mostly Cloudy with Mist and Fog 72 22.2 71 21.7 97 97 N N/A 29.94 1014 4 6 N/A
5:53 am 05:53 Mostly Cloudy with Mist and Fog 72 22.2 71 21.7 97 97 N N/A 29.96 1015 4 6 N/A
6:17 am 06:17 Cloudy with Light Rain 73 22.8 71 21.7 94 94 N 5 7 29.97 1015 5 8 N/A
6:53 am 06:53 Mostly Cloudy with Mist and Fog 73 22.8 71 21.7 94 94 N 5 7 29.97 1015 4 6 N/A
7:53 am 07:53 Cloudy with Light Rain 74 23.3 72 22.2 94 94 N N/A 29.98 1015 4 6 N/A
8:53 am 08:53 Cloudy 75 23.9 71 21.7 88 88 VRB 3 6 29.99 1016 8 13 0.01 0.25
9:53 am 09:53 Mostly Cloudy 75 23.9 71 21.7 88 88 ENE 3 6 30.00 1016 8 13 N/A
10:53 am 10:53 Mostly Cloudy 78 25.6 72 22.2 82 82 NE 3 6 30.01 1016 9 14 N/A
11:08 am 11:08 Mostly Cloudy 78 25.6 72 22.2 82 82 N N/A 30.03 1017 9 14 N/A
11:53 am 11:53 Mostly Cloudy with Light Rain 78 25.6 73 22.8 85 85 N N/A 30.01 1016 6 10 N/A
12:05 pm 12:05 Mostly Cloudy 79 26.1 73 22.8 82 82 N N/A 30.03 1017 8 13 N/A
12:53 pm 12:53 Mostly Cloudy 81 27.2 73 22.8 77 77 E 3 6 30.00 1016 9 14 N/A
1:50 pm 13:50 Mostly Cloudy 81 27 73 23 79 79 ENE 6 9 29.97 1015 8 13 N/A
1:53 pm 13:53 Mostly Cloudy 82 27.8 75 23.9 79 79 ENE 9 15 29.99 1016 8 13 N/A
2:03 pm 14:03 Mostly Cloudy 82 27.8 74 23.3 77 77 E 7 11 29.97 1015 8 13 N/A
2:53 pm 14:53 Cloudy 82 27.8 74 23.3 77 77 ESE 5 7 29.97 1015 10 16 N/A
3:53 pm 15:53 Mostly Cloudy 85 29.4 74 23.3 70 70 ENE 7 11 29.97 1015 10 16 N/A
4:53 pm 16:53 Sunny 85 29.4 72 22.2 65 65 VRB 5 7 29.95 1014 10 16 N/A
5:53 pm 17:53 Sunny 86 30 71 21.7 61 61 N N/A 29.94 1014 10 16 N/A
6:53 pm 18:53 Sunny 86 30 70 21.1 59 59 N 5 7 29.93 1014 10 16 N/A
7:53 pm 19:53 Sunny 84 28.9 72 22.2 67 67 NE 5 7 29.93 1014 10 16 N/A
8:53 pm 20:53 Sunny 78 25.6 73 22.8 85 85 N N/A 29.96 1014 10 16 N/A
9:53 pm 21:53 Clear 75 23.9 72 22.2 90 90 ENE 3 6 29.97 1015 7 11 N/A
10:53 pm 22:53 Clear 73 22.8 72 22.2 96 96 N N/A 29.99 1016 8 13 N/A
11:53 pm 23:53 Clear 73 22.8 72 22.2 96 96 N N/A 30.00 1016 7 11 N/A

Powered by AerisWeather